Location: Katherine
(14.4670°S, 132.2670°E)
Time: 00:38:56
(UTC+09:30)

ISS - Visible Passes

Search period start: 30 March 2017 00:00
Search period end: 09 April 2017 00:00
Orbit: 399 x 409 km, 51.6° (Epoch: 30 March)

Date Brightness Start Highest point End Pass type
(mag) Time Alt. Az. Time Alt. Az. Time Alt. Az.
30 Mar -3.7 05:45:29 16° NNW 05:47:59 74° NE 05:51:17 10° SE visible
31 Mar -1.3 04:56:37 22° E 04:56:37 22° E 04:58:31 10° ESE visible
01 Apr -2.5 05:40:16 25° SSW 05:40:16 25° SSW 05:42:33 10° S visible
